Phuket, Thailand

1:35 PM +07 on December 13, 2017 (GMT +0700)
Phuket International

Weather History for VTSP - May, 2014

Change the Weather History Date:

Friday, May 2, 2014

  Actual Average Record
Temperature  
Mean Temperature 83 °F -  
Max Temperature 92 °F 89 °F 95 °F (2002)
Min Temperature 74 °F 78 °F 74 °F (2014)
Cooling Degree Days 18    
Growing Degree Days 33 (Base 50)    
Moisture  
Dew Point 76 °F    
Average Humidity 77    
Maximum Humidity 94    
Minimum Humidity 46    
Precipitation  
Precipitation 0.04 in 0.45 in - ()
Sea Level Pressure  
Sea Level Pressure 29.80 in    
Wind  
Wind Speed 2 mph ()    
Max Wind Speed 12 mph    
Max Gust Speed -    
Visibility 5.2 miles    
Events Rain , Thunderstorm    
Averages and records for this station are not official NWS values.
T = Trace of Precipitation, MM = Missing Value Source: Averaged Metar Reports

Daily Weather History Graph

Daily Weather History Graph

Search for Another Location

Airport or City:

Trip Planner

Search our weather history database for the weather conditions in past years. The results will help you decide how hot, cold, wet, or windy it might be!

Date:

Astronomy

May. 02, 2014 Rise Set
Actual Time 6:11 AM +07 6:36 PM +07
Civil Twilight 5:49 AM +07 6:57 PM +07
Nautical Twilight 5:24 AM +07 7:23 PM +07
Astronomical Twilight 4:58 AM +07 7:48 PM +07
Moon 8:34 AM +07 (5/2) 9:21 PM +07 (5/2)
Length of Visible Light 13h 08m
Length of Day
12h 24m
Waxing Crescent, 9% of the Moon is Illuminated
May 2
Waxing Crescent
May 7
First Quarter
May 15
Full
May 21
Last Quarter
May 29
New

Hourly Weather History & Observations

Time (+07) Temp. Heat Index Dew Point Humidity Pressure Visibility Wind Dir Wind Speed Gust Speed Precip Events Conditions
12:00 AM 82.4 °F 90.9 °F 77.0 °F 84% 29.83 in 4.3 mi Calm Calm - N/A   Mostly Cloudy
12:30 AM 82.4 °F 90.9 °F 77.0 °F 84% 29.83 in 4.3 mi Calm Calm - N/A   Mostly Cloudy
1:00 AM 82 °F - 79 °F 87% 29.81 in 4 mi Calm Calm - -   Mist
1:00 AM 80.6 °F 87.1 °F 77.0 °F 89% 29.80 in 4.3 mi Calm Calm - N/A   Mostly Cloudy
1:30 AM 80.6 °F 87.1 °F 77.0 °F 89% 29.80 in 4.3 mi Calm Calm - N/A   Mostly Cloudy
2:00 AM 80.6 °F 87.1 °F 77.0 °F 89% 29.77 in 4.3 mi Calm Calm - N/A   Mostly Cloudy
2:30 AM 80.6 °F 87.1 °F 77.0 °F 89% 29.77 in 4.3 mi Calm Calm - N/A   Mostly Cloudy
3:00 AM 80.6 °F 87.1 °F 77.0 °F 89% 29.77 in 4.3 mi Calm Calm - N/A   Mostly Cloudy
3:30 AM 80.6 °F 87.1 °F 77.0 °F 89% 29.77 in 4.3 mi Calm Calm - N/A   Mostly Cloudy
4:00 AM 80 °F - 78 °F 91% 29.73 in 4 mi Calm Calm - -   Mist
4:00 AM 78.8 °F - 77.0 °F 94% 29.77 in 4.3 mi Calm Calm - N/A   Mostly Cloudy
4:30 AM 80.6 °F 87.1 °F 77.0 °F 89% 29.77 in 4.3 mi Calm Calm - N/A   Mostly Cloudy
5:00 AM 80.6 °F 87.1 °F 77.0 °F 89% 29.80 in 4.3 mi Calm Calm - N/A   Mostly Cloudy
5:30 AM 80.6 °F 87.1 °F 77.0 °F 89% 29.80 in 4.3 mi Variable 1.2 mph - N/A   Mostly Cloudy
6:00 AM 80.6 °F 87.1 °F 77.0 °F 89% 29.80 in 5.0 mi ESE 3.5 mph - N/A   Scattered Clouds
6:30 AM 80.6 °F 87.1 °F 77.0 °F 89% 29.80 in 5.0 mi Calm Calm - N/A   Scattered Clouds
7:00 AM 80 °F - 79 °F 94% 29.78 in 6 mi Calm Calm - -   Scattered Clouds
7:00 AM 80.6 °F 87.1 °F 77.0 °F 89% 29.80 in 5.6 mi Calm Calm - N/A   Scattered Clouds
7:30 AM 84.2 °F 94.1 °F 77.0 °F 79% 29.83 in 5.6 mi East 4.6 mph - N/A   Scattered Clouds
8:00 AM 84.2 °F 94.1 °F 77.0 °F 79% 29.83 in 5.6 mi Variable 1.2 mph - N/A   Scattered Clouds
8:30 AM 87.8 °F 99.7 °F 77.0 °F 70% 29.86 in 5.6 mi East 3.5 mph - N/A   Scattered Clouds
9:00 AM 89.6 °F 102.2 °F 77.0 °F 66% 29.86 in 5.6 mi NE 4.6 mph - N/A   Mostly Cloudy
9:30 AM 89.6 °F 102.2 °F 77.0 °F 66% 29.86 in 5.6 mi NNE 4.6 mph - N/A   Mostly Cloudy
10:00 AM 87 °F - 78 °F 69% 29.83 in 6 mi West 5.8 mph - -   Scattered Clouds
10:00 AM 87.8 °F 99.7 °F 77.0 °F 70% 29.86 in 5.6 mi West 5.8 mph - N/A   Mostly Cloudy
10:30 AM 87.8 °F 99.7 °F 77.0 °F 70% 29.86 in 5.6 mi West 3.5 mph - N/A   Mostly Cloudy
11:00 AM 87.8 °F 99.7 °F 77.0 °F 70% 29.86 in 5.6 mi WSW 5.8 mph - N/A   Mostly Cloudy
11:30 AM 86.0 °F 95.1 °F 75.2 °F 70% 29.86 in 5.6 mi SW 6.9 mph - N/A   Mostly Cloudy
12:00 PM 86.0 °F 93.4 °F 73.4 °F 66% 29.86 in 5.6 mi WSW 4.6 mph - N/A   Mostly Cloudy
12:30 PM 89.6 °F 98.2 °F 73.4 °F 59% 29.83 in 5.6 mi ESE 3.5 mph - N/A   Mostly Cloudy
1:00 PM 90 °F - 72 °F 46% 29.79 in 6 mi West 8.1 mph - -   Scattered Clouds
1:00 PM 89.6 °F 99.8 °F 75.2 °F 62% 29.83 in 5.6 mi West 8.1 mph - N/A   Mostly Cloudy
1:30 PM 89.6 °F 102.2 °F 77.0 °F 66% 29.80 in 5.6 mi WSW 10.4 mph - N/A   Mostly Cloudy
2:00 PM 89.6 °F 102.2 °F 77.0 °F 66% 29.77 in 5.6 mi WSW 8.1 mph - N/A   Mostly Cloudy
2:30 PM 89.6 °F 99.8 °F 75.2 °F 62% 29.77 in 5.6 mi WSW 11.5 mph - N/A   Mostly Cloudy
3:00 PM 89.6 °F 99.8 °F 75.2 °F 62% 29.77 in 5.6 mi WSW 8.1 mph - N/A   Mostly Cloudy
3:30 PM 89.6 °F 102.2 °F 77.0 °F 66% 29.74 in 5.6 mi WSW 8.1 mph - N/A   Mostly Cloudy
4:00 PM 90 °F - 76 °F 54% 29.70 in 6 mi WSW 8.1 mph - -   Scattered Clouds
4:00 PM 87.8 °F 97.6 °F 75.2 °F 66% 29.74 in 5.6 mi WSW 8.1 mph - N/A   Mostly Cloudy
4:30 PM 87.8 °F 97.6 °F 75.2 °F 66% 29.74 in 5.6 mi West 10.4 mph - N/A   Mostly Cloudy
5:00 PM 86.0 °F 96.9 °F 77.0 °F 74% 29.74 in 5.6 mi WNW 5.8 mph - N/A   Mostly Cloudy
5:30 PM 87.8 °F 99.7 °F 77.0 °F 70% 29.77 in 5.6 mi NW 6.9 mph - N/A   Mostly Cloudy
6:00 PM 86.0 °F 95.1 °F 75.2 °F 70% 29.77 in 5.6 mi WNW 4.6 mph - N/A   Mostly Cloudy
6:30 PM 86.0 °F 95.1 °F 75.2 °F 70% 29.77 in 5.6 mi West 4.6 mph - N/A   Mostly Cloudy
7:00 PM 88 °F - 78 °F 65% 29.75 in 6 mi Calm Calm - -   Scattered Clouds
7:00 PM 84.2 °F 94.1 °F 77.0 °F 79% 29.80 in 5.6 mi Calm Calm - N/A   Mostly Cloudy
7:30 PM 82.4 °F 90.9 °F 77.0 °F 84% 29.80 in 5.6 mi Calm Calm - N/A   Mostly Cloudy
8:00 PM 82.4 °F 90.9 °F 77.0 °F 84% 29.83 in 5.6 mi Calm Calm - N/A   Mostly Cloudy
8:30 PM 84.2 °F 94.1 °F 77.0 °F 79% 29.83 in 5.6 mi Variable 2.3 mph - N/A   Mostly Cloudy
9:00 PM 84.2 °F 94.1 °F 77.0 °F 79% 29.83 in 5.6 mi Variable 2.3 mph - N/A   Mostly Cloudy
9:30 PM 82.4 °F 89.5 °F 75.2 °F 79% 29.86 in 5.6 mi Variable 1.2 mph - N/A   Mostly Cloudy
10:00 PM 83 °F - 78 °F 82% 29.82 in 6 mi Calm Calm - -   Scattered Clouds
10:00 PM 82.4 °F 89.5 °F 75.2 °F 79% 29.86 in 5.0 mi East 4.6 mph - N/A   Mostly Cloudy
10:30 PM 80.6 °F 85.4 °F 73.4 °F 79% 29.86 in 4.3 mi East 11.5 mph - N/A Thunderstorm Thunderstorm
11:00 PM 80.6 °F 86.2 °F 75.2 °F 84% 29.86 in 4.3 mi East 11.5 mph - N/A Rain Rain
11:30 PM 78.8 °F - 75.2 °F 89% 29.86 in 4.3 mi ENE 4.6 mph - N/A Rain Rain